sat.trackr.live / text

‹ back to catalog

STARLINK-35360

NORAD 66444 · 2025-259Y

PAYLOAD ACTIVE UNKNOWN

§ Identity

Operator
Country
US
Launch date
2025-11-11
Launch site
AFETR
Launch vehicle
Mass (kg)
RCS (m²)

Purposes: comms

External: N2YO · Heavens-Above · Gunter

§ Orbital elements

Epoch: 2026-05-25T04:21:06.052320Z

Period
94.27 min
Inclination
42.9998°
Eccentricity
0.0001195
Mean motion
15.27584610 rev/d
Perigee alt
482.2 km
Apogee alt
483.9 km
Semi-major
6,861.2 km
B*
6.5395e-4
RAAN
202.0145°
Arg perigee
270.0024°
Mean anomaly
90.0691°
Rev number
3,119

§ Raw data

STARLINK-353601 66444U 25259Y   26145.18132005  .00017779  00000+0  65395-3 0  99962 66444  42.9998 202.0145 0001195 270.0024  90.0691 15.27584610 31190

JSON: /api/v1/satellites/66444 · /tle

For live sub-satellite position, see the globe view (requires WebGL).

§ Visibility from observer

Set your observer location to see the next 7 days of passes ≥ 10°. The values pass through the URL so the page stays shareable.

No JS? Fill the form by hand. The geolocation button needs JavaScript.